Location: Mentone
(34.5413°N, 85.5351°W)
Time: 22:16:30
(UTC-05:00)

Vanguard 2 Rocket - Visible Passes

Search period start: 26 April 2017 00:00
Search period end: 06 May 2017 00:00
Orbit: 554 x 3328 km, 32.9° (Epoch: 25 April)

Date Brightness Start Highest point End Pass type
(mag) Time Alt. Az. Time Alt. Az. Time Alt. Az.
26 Apr 7.1 20:55:45 10° W 21:04:14 61° SSW 21:06:23 37° SE visible
27 Apr 7.5 19:54:09 10° W 20:04:50 75° SSW 20:10:28 12° ESE visible
27 Apr 8.2 22:11:50 10° W 22:16:17 26° SW 22:16:17 26° SW visible
28 Apr 7.4 21:10:30 10° W 21:18:39 46° SSW 21:20:21 36° SSE visible
29 Apr 7.7 20:08:50 10° W 20:19:24 63° SSW 20:24:26 16° ESE visible
29 Apr 8.9 22:27:22 10° W 22:30:15 16° WSW 22:30:15 16° WSW visible
30 Apr 8.0 21:25:25 10° W 21:32:48 31° SW 21:34:19 28° S visible
01 May 8.1 20:23:33 10° W 20:33:44 49° SSW 20:38:24 18° SE visible
02 May 8.6 21:40:49 10° W 21:46:41 20° SW 21:48:20 18° SSW visible
03 May 8.5 20:38:25 10° W 20:47:48 35° SW 20:52:25 16° SSE visible
04 May 9.2 21:57:50 10° WSW 22:00:20 12° SW 22:02:22 10° SSW visible
05 May 8.9 20:53:43 10° W 21:01:36 24° SW 21:06:29 12° S visible
